THORAD AGENA D DEB

Satellite information

Favourite Embed

Satellite Type and Status

DEBRISIN ORBIT

Key statistics

Satellite THORAD AGENA D DEB at a glance.

Uptime

20479

Days in orbit

Revolutions

≈ 14.3

Per day

Orbit

LEO

Low Earth Orbit

Inclination

70.0

Latest

Satellite identification and parameters

Extended collection of information and parameters for THORAD AGENA D DEB.

Object identification

Identified? True

Debris? True

Object name: THORAD AGENA D DEB

International designator: 1969-082AY

Object number (NORAD): 4180

Object ID (CCSDS): 4180

Country: UNITED STATES OF AMERICA (US)

Current information (Y/N): Y

RCS size: SMALL

Orbital parameters

Period: 100.36 minutes

Inclination: 69.9767 deg

SMA: 7153.759 km

Apoapsis: 828.811 km

Periapsis: 722.437 km

RAAN: 115.4976 deg

Eccentricy: 0.00743487

Argument of periapsis: 205.4635 deg

Mean anomaly: 154.2822 deg

Mean motion: 14.34832898 rev/day

Mean motion (dot): 0.00001007 rev/day2

B* drag term: 0.00036359597 1/REarth

Two-line elements (TLE)

Creation date: Oct. 25, 2025, 3:11 a.m.

Reference frame: TEME

Reference center: EARTH

Epoch: Oct. 24, 2025, 9:16 p.m. UTC

TLE line 0: 0 THORAD AGENA D DEB

TLE line 1: 1 04180U 69082AY 25297.88647363 .00001007 00000-0 36360-3 0 9997

TLE line 2: 2 04180 69.9767 115.4976 0074349 205.4635 154.2822 14.34832898914035

Live tracking on map

Real-time ground track for satellite THORAD AGENA D DEB.

In-orbit conjunctions

A list of the most updated potential collisions computed for object THORAD AGENA D DEB.

Target Orbit TCA Probability of collision Miss distance Type
CZ-6A DEB LEO 2025-10-14 08:25:01 0.0001049228 154.0 (m) DEBRIS
DMSP 5D-2 F13 DEB SSO 2024-11-14 10:22:22 0.000134637 225.0 (m) DEBRIS

Associated space launch

Poppy was the follow-on ELINT system, which succeeded the Grab ELINT satellite system.

THORAD AGENA D DEB was lifted into orbit during the mission ‘Thorad SLV-2G Agena D | Poppy 8A,B,C,D’, on board a Thorad SLV-2G Agena D space rocket.

The launch took place on Sept. 30, 1969, 1:40 p.m. from Space Launch Complex 1W.

For more information about the launch, click the button.

Launch to space Thorad SLV-2G Agena D | Poppy 8A,B,C,D
Thorad SLV-2G Agena D | Poppy 8A,B,C,D

Agency: N/A

Status: Launch Successful

Launch date: Sept. 30, 1969, 1:40 p.m. UTC

Rocket: Thorad SLV-2G Agena D

Launch pad: Space Launch Complex 1W

Location: Vandenberg SFB, CA, USA

...

Latest news about this satellite

There are no fresh news available about this satellite. Check back as we update our databases every day.


Newsletter sign-up

Weekly statistics, charts and insights to help you stay on top of the space industry.